Maplewood, Minnesota, United States
Lat: 44.95N, Lon: 93W
Wx Zone: MNZ062
Local Info
Past Weather Observations for Friday, October 17, 2014

NOTE: This archive is for the closest National Weather Service station to Maplewood. Information may differ from the station used for current weather conditions.

Click here for Long-term Archive

Time Weather Temperature Dewpoint Humidity Pressure Winds Precip Visibility
23:53
Overcast
50°F / 10°C 39°F / 4°C 67% 30.09 in
(1019 mb)
N 18.4 mph
(N 30 kph)
- 10SM
22:53
Overcast
52°F / 11°C 39°F / 4°C 62% 30.06 in
(1018 mb)
NW 11.5 mph
(NW 19 kph)
- 10SM
21:53
Overcast
52°F / 11°C 39°F / 4°C 62% 30.06 in
(1018 mb)
NNW 13.8 mph
(NNW 22 kph)
- 10SM
20:53
Overcast
52°F / 11°C 39°F / 4°C 62% 30.04 in
(1017 mb)
NW 17.3 mph
(NW 28 kph)
- 10SM
19:53
Overcast
52°F / 11°C 41°F / 5°C 67% 30.01 in
(1016 mb)
WNW 11.5 mph
(WNW 19 kph)
- 10SM
18:53
Overcast
52°F / 11°C 39°F / 4°C 62% 30.01 in
(1016 mb)
NW 9.2 mph
(NW 15 kph)
- 10SM
17:53
Overcast
54°F / 12°C 41°F / 5°C 63% 29.98 in
(1015 mb)
NW 11.5 mph
(NW 19 kph)
- 10SM
16:53
Overcast
54°F / 12°C 45°F / 7°C 72% 29.95 in
(1014 mb)
NNW 10.4 mph
(NNW 17 kph)
- 10SM
16:04
Overcast
54°F / 12°C 45°F / 7°C 72% 29.95 in
(1014 mb)
NNW 13.8 mph
(NNW 22 kph)
- 10SM
15:53
Overcast
54°F / 12°C 45°F / 7°C 72% 29.92 in
(1013 mb)
NNW 12.7 mph
(NNW 20 kph)
- 10SM
15:00
Overcast
54°F / 12°C 45°F / 7°C 72% 29.89 in
(1012 mb)
NNW 23 mph
(NNW 37 kph)
- 10SM
14:53
Overcast
54°F / 12°C 45°F / 7°C 72% 29.89 in
(1012 mb)
N 17.3 mph
(N 28 kph)
- 10SM
14:23
Overcast
54°F / 12°C 45°F / 7°C 72% 29.89 in
(1012 mb)
NW 16.1 mph
(NW 26 kph)
- 10SM
13:53
Overcast
54°F / 12°C 45°F / 7°C 72% 29.86 in
(1011 mb)
NNW 16.1 mph
(NNW 26 kph)
- 10SM
13:46
Overcast
54°F / 12°C 45°F / 7°C 72% 29.86 in
(1011 mb)
NW 16.1 mph
(NW 26 kph)
- 10SM
12:53
Overcast
55°F / 13°C 45°F / 7°C 67% 29.83 in
(1010 mb)
NNW 16.1 mph
(NNW 26 kph)
- 10SM
12:31
Overcast
55°F / 13°C 45°F / 7°C 67% 29.83 in
(1010 mb)
NNW 17.3 mph
(NNW 28 kph)
- 10SM
12:10
Overcast
55°F / 13°C 45°F / 7°C 67% 29.8 in
(1009 mb)
NW 15 mph
(NW 24 kph)
- 10SM
11:53
Overcast
55°F / 13°C 45°F / 7°C 67% 29.8 in
(1009 mb)
NW 17.3 mph
(NW 28 kph)
- 10SM
11:35
Overcast
54°F / 12°C 45°F / 7°C 72% 29.8 in
(1009 mb)
NW 16.1 mph
(NW 26 kph)
- 10SM
11:20
Overcast
54°F / 12°C 45°F / 7°C 72% 29.8 in
(1009 mb)
NW 15 mph
(NW 24 kph)
- 10SM
10:53
Overcast
54°F / 12°C 45°F / 7°C 72% 29.77 in
(1008 mb)
NW 18.4 mph
(NW 30 kph)
- 10SM
09:53
Overcast
52°F / 11°C 45°F / 7°C 77% 29.77 in
(1008 mb)
NW 15 mph
(NW 24 kph)
- 10SM
08:53
Overcast
52°F / 11°C 43°F / 6°C 72% 29.74 in
(1007 mb)
NW 17.3 mph
(NW 28 kph)
- 10SM
07:53
Overcast
52°F / 11°C 43°F / 6°C 72% 29.71 in
(1006 mb)
WNW 18.4 mph
(WNW 30 kph)
- 10SM
06:53
Overcast
52°F / 11°C 43°F / 6°C 72% 29.68 in
(1005 mb)
NW 16.1 mph
(NW 26 kph)
- 10SM
05:53
Overcast
54°F / 12°C 45°F / 7°C 72% 29.65 in
(1004 mb)
NW 18.4 mph
(NW 30 kph)
- 10SM
04:53
Overcast
54°F / 12°C 45°F / 7°C 72% 29.62 in
(1003 mb)
NW 18.4 mph
(NW 30 kph)
- 10SM
03:53
Overcast
54°F / 12°C 45°F / 7°C 72% 29.62 in
(1003 mb)
W 16.1 mph
(W 26 kph)
- 10SM
03:31
Overcast
54°F / 12°C 45°F / 7°C 72% 29.62 in
(1003 mb)
NW 18.4 mph
(NW 30 kph)
- 10SM
03:08
Overcast
54°F / 12°C 45°F / 7°C 72% 29.62 in
(1003 mb)
NW 15 mph
(NW 24 kph)
- 10SM
02:53
Overcast
54°F / 12°C 45°F / 7°C 72% 29.62 in
(1003 mb)
WNW 16.1 mph
(WNW 26 kph)
- 10SM
02:42
Overcast
54°F / 12°C 45°F / 7°C 72% 29.62 in
(1003 mb)
WNW 19.6 mph
(WNW 32 kph)
- 10SM
02:30
Overcast
54°F / 12°C 45°F / 7°C 72% 29.59 in
(1002 mb)
NW 15 mph
(NW 24 kph)
- 10SM
01:53
Overcast
55°F / 13°C 46°F / 8°C 72% 29.59 in
(1002 mb)
W 24.2 mph
(W 39 kph)
- 10SM
01:25
Overcast
55°F / 13°C 46°F / 8°C 72% 29.59 in
(1002 mb)
W 16.1 mph
(W 26 kph)
- 10SM
00:53
Overcast
57°F / 14°C 46°F / 8°C 67% 29.59 in
(1002 mb)
W 15 mph
(W 24 kph)
- 10SM
Time Weather Temperature Dewpoint Humidity Pressure Winds Precip Visibility


Weather for websites

WeatherForYou.com, LLC is not responsible for any damages or problems caused by this service. Current weather conditions are obtained from the closest station including government and personal stations which may have varying degrees of accuracy. Weather forecasts are derived from the NOAA NDFD. Like all things, this site belongs to Jesus Christ... He just trusts me to maintain it. If you have any questions or comments email webmaster@weatherforyou.com

Copyright © 2014, WeatherForYou.com LLC. All rights reserved.